Location: Tamazert
(32.6352°N, 5.2072°W)
Time: 15:30:30
(UTC+00:00)

Vanguard 3 - Pass Details

Date: 04 October 2022
Orbit: 509 x 3255 km, 33.3° (Epoch: 08 December)

Event Time Altitude Azimuth Distance (km) Brightness Sun altitude
Rises 12:28:26 0° 281° (W) 3,467 10.4 52.6°
Reaches altitude 10° 12:30:29 10° 279° (W) 2,755 10.0 52.6°
Maximum altitude 12:37:12 68° 197° (SSW) 1,522 10.5 52.3°
Drops below altitude 10° 12:49:32 10° 118° (ESE) 4,841 11.3 51.7°
Sets 12:54:21 0° 116° (ESE) 6,265 11.7 51.4°
